Other Public Products
Issued by NWS Grand Forks, ND

Home | Current Version | Previous Version | Text Only | Print | Product List | Glossary Off
Versions: 1 2 3 4 5 6 7 8 9 10 11 12 13 14 15 16 17 18 19 20 21 22 23 24 25 26 27 28 29 30 31 32 33 34 35 36 37 38 39 40 41 42 43 44 45 46 47 48 49 50

000
FPUS83 KFGF 031610
OPUFGF
PRAIRIE TO PINES WEATHER ROUNDUP
NATIONAL WEATHER SERVICE EASTERN NORTH DAKOTA/GRAND FORKS ND
1000 AM CST TUE MAR 03 2015

 **SATELLITE DATA USED TO AUGMENT SKY COVER AT AUTOMATED STATIONS**
 *****  WEATHER ACROSS EASTERN NORTH DAKOTA  *****

CITY           SKY/WX    TMP DP  RH WIND       PRES   REMARKS
GRAND FORKS    CLOUDY     9   1  70 NW29      29.88R WCI -13
GRAND FORKS AF CLOUDY     9  -2  61 NW24G32   29.88R WCI -12
GRAND CITY NWS   N/A     10 N/A N/A NW24        N/A  WCI -10
BUXTON         NOT AVBL
DEVILS LAKE    SUNNY      3  -8  60 NW29G37   29.89S WCI -21
FARGO          FLURRIES  14   3  61 NW29G38   29.86R WCI  -7
WAHPETON ARPT  CLOUDY    14   9  79 NW28G37   29.85R VSB 1   WCI  -6
$$

 *****  WEATHER ACROSS CENTRAL AND WESTERN NORTH DAKOTA  *****

CITY           SKY/WX    TMP DP  RH WIND       PRES   REMARKS
JAMESTOWN      CLOUDY     6  -3  66 NW30G38   29.92R WCI -18
BISMARCK       SUNNY      9  -5  53 NW23G36   30.04R WCI -11
MINOT          LGT SNOW   2  -6  69 W25G32    30.01S WCI -22
MINOT AFB      CLOUDY     1  -6  75 NW23      30.01R BLWGSNOWWCI -23
GARRISON         N/A      3  -6  66 NW28      30.01S WCI -21
WILLISTON      PTSUNNY    4  -6  63 NW23G30   30.12R WCI -18
DICKINSON      PTSUNNY    8  -3  61 NW25G38   29.98S WCI -13
HETTINGER      PTSUNNY    9  -2  61 NW32G40   30.02S WCI -14
$$

 *****  OTHER OBSERVATIONS NORTHEAST NORTH DAKOTA  *****

CITY           SKY/WX    TMP DP  RH WIND       PRES   REMARKS
WALHALLA         N/A      7   0  72 NW18G30   29.88R WCI -12
LANGDON        NOT AVBL
CAVALIER       CLOUDY     7   0  72 NW22G29   29.87S WCI -14
GRAFTON        NOT AVBL
CANDO          CLOUDY     3  -6  66 NW23      29.92S WCI -19
FORT TOTTEN    NOT AVBL
ROLLA          FAIR       0  -9  65 NW28G33   29.88R WCI -26
RUGBY          FAIR       0  -8  71 NW25G32   29.94F WCI -25
 ***** THE ABOVE OBSERVATIONS ARE NON NWS ARE NOT QUALITY
        CONTROLLED AND MAY MIS-REPORT RAIN FOR SNOW...
$$

 *****  OTHER OBSERVATIONS SOUTHEAST NORTH DAKOTA *****

CITY           SKY/WX    TMP DP  RH WIND       PRES   REMARKS
COOPERSTOWN    NOT AVBL
VALLEY CITY    FLURRIES   7   0  72 NW29G40   29.89R WCI -16
OAKES          LGT SNOW   9   1  72 NW29G37   29.93R WCI -14
GWINNER        PTSUNNY   14   3  62 NW31G37   29.90R WCI  -7
SHEYENNE NWR     N/A     13   2  63 NW20      29.95  WCI  -5
BUFFALO        NOT AVBL
WYNDMERE       NOT AVBL
 ***** THE ABOVE OBSERVATIONS ARE NON NWS ARE NOT QUALITY
       CONTROLLED AND MAY MIS-REPORT RAIN FOR SNOW...
$$

  *****  WEATHER ACROSS NORTHERN MINNESOTA  *****

CITY           SKY/WX    TMP DP  RH WIND       PRES   REMARKS
FLAG ISLAND    PTSUNNY    9   1  72 NW29      29.69R HAZE    WCI -14
WARROAD        CLOUDY    12   3  67 NW18G25   29.72R WCI  -5
ROSEAU         PTSUNNY   12   3  67 NW22G28   29.74R WCI  -7
HALLOCK        NOT AVBL
THF RVR FALLS  CLOUDY    10   5  79 NW22      29.79R WCI  -9
HALSTAD        NOT AVBL
FOSSTON        CLOUDY    12   5  73 NW20      29.77S HAZE    WCI  -6
BAUDETTE       MIX PCPN  13   6  74 NW21      29.67R WCI  -5
WASKISH        FLURRIES  16  10  79 W16G25    29.68R WCI   0
CROOKSTON      PTSUNNY   12   7  79 NW20G26   29.86R HAZE    WCI  -6
$$
  *****  WEATHER ACROSS CENTRAL AND WEST MINNESOTA  *****

CITY           SKY/WX    TMP DP  RH WIND       PRES   REMARKS
BEMIDJI          N/A     14   8  79 NW25G33   29.70R HAZE    WCI  -6
PARK RAPIDS    LGT SNOW  18   9  68 NW20G32   29.68R WCI   2
WADENA         LGT SNOW  18  10  73 NW22G28   29.69R WCI   0
DETROIT LAKES  CLOUDY    16  10  79 NW23G38   29.78R HAZE    WCI  -2
MOORHEAD       MIX PCPN  14   9  79 NW23G33   29.86R WCI  -5
FERGUS FALLS   LGT SNOW  16   9  73 NW28G39   29.83R VSB 3/4 WCI  -4
ELBOW LAKE     LGT SNOW  15  12  85 NW32G38   29.77R VSB 1   WCI  -5
MORRIS MN      LGT SNOW  18  14  86 NW28G38   29.76R VSB 1   WCI  -1
STAPLES        LGT SNOW  19  16  86 NW18G24   29.67R WCI   4
WHEATON        LGT SNOW  16   9  73 NW26G37   29.85R WCI  -3
$$
  *****  WEATHER ELSEWHERE ACROSS MINNESOTA  *****

CITY           SKY/WX    TMP DP  RH WIND       PRES   REMARKS
DULUTH         SNOW      20  15  81 SW12      29.59F VSB 1/2 WCI   8
INTRNTL FALLS  LGT SNOW  20  14  77 W20G29    29.58R WCI   4
ELY            LGT SNOW  19  18  93 SW9       29.55F WCI   9
CLOQUET        LGT SNOW  19  16  86 SW8       29.60F VSB 3/4 WCI   9
BRAINERD       LGT SNOW  21  18  88 SW10      29.63F VSB 3/4 WCI  10
HIBBING        LGT SNOW  21  17  84 SW7       29.57F VSB 3/4 WCI  12
ALEXANDRIA     LGT SNOW  19  14  81 NW17G29   29.71R WCI   4
SAINT CLOUD    LGT SNOW  21  18  88 SW7       29.66F VSB 1   WCI  12
MINNEAPOLIS    LGT SNOW  23  21  92 SW3       29.68S VSB 1
$$

  *****  WEATHER ACROSS SOUTH DAKOTA  *****

CITY           SKY/WX    TMP DP  RH WIND       PRES   REMARKS
SIOUX FALLS    LGT SNOW  23  18  81 N26G37    29.76R BLWGSNOWWCI   6
BROOKINGS      NOT AVBL
WATERTOWN      LGT SNOW  15  10  80 N32G41    29.81R VSB 3/4 WCI  -6
HURON          LGT SNOW  16  10  77 NW35G43   29.92R WCI  -5
SISSETON         N/A     15  10  80 N28G43    29.85R WCI  -5
ABERDEEN       LGT SNOW  13   4  67 NW33G40   29.97R VSB 1   WCI  -9
MITCHELL       LGT SNOW  20  15  81 NW30G39   29.92R VSB 3/4 WCI   1
PIERRE         MIX PCPN  17   8  67 NW24G31   30.02R WCI  -1
MOBRIDGE       MOSUNNY   13  -1  54 NW29G37   29.99R WCI  -8
RAPID CITY     CLOUDY    13   1  59 N29G37    30.01R WCI  -8
$$

  *****  SOME WEATHER IN NEARBY STATES *****

CITY           SKY/WX    TMP DP  RH WIND       PRES   REMARKS
GLASGOW MT     MOSUNNY    7  -6  55 NW22G31   30.15F WCI -14
GREAT FALLS MT MOSUNNY    4   1  88 SW6       30.17F WCI  -7
CHEYENNE WY    LGT SNOW  11   3  70 N20G29    29.83R WCI  -7
SCOTTSBLUFF NE LGT SNOW  18  10  71 N16       29.98R WCI   3
OMAHA NE       CLOUDY    33  30  88 NW17      29.75R FOG     WCI  22
DES MOINES IA  DRZL/FOG  34  32  92 W8        29.69S VSB 1
DAVENPORT IA   CLOUDY    30  28  92 SW15      29.70F FOG     WCI  19
CHICAGO IL     FRZ DRZL  30  27  88 S20G28    29.71F FOG     WCI  17
EAU CLAIRE WI  LGT SNOW  22  19  89 CALM      29.67F VSB 3/4
LA CROSSE WI   CLOUDY    26  23  88 S6        29.69F FOG     WCI  19
$$

  *****  SOME NATIONAL WEATHER *****

CITY           SKY/WX    TMP DP  RH WIND       PRES   REMARKS
LA GUARDIA NY  CLOUDY    29  10  45 SE9       30.41F WCI  20
RALEIGH NC     CLOUDY    38  20  48 E5        30.37F
ATLANTA GA     DRZL/FOG  53  51  93 E9        30.24S VSB 1/2
NEW ORLEANS LA PTSUNNY   74  68  81 S8        30.13F
OKLAHOMA CITY  PTSUNNY   48  41  76 S18G24    29.92R
ALBUQUERQUE NM PTSUNNY   42  27  55 NW6       29.93R
SALT LAKE CITY SNOW      32  30  92 NW18G26   29.83R VSB 1/2 WCI  20
LOS ANGELES CA MOSUNNY   52  43  71 NE6       29.96R
BOISE ID       SUNNY     32  20  61 NW13      30.02R WCI  22
SEATTLE WA     MOSUNNY   36  31  82 CALM      30.22S
$$

*** WEATHER ACROSS MANITOBA...SASKATCHEWAN AND ONTARIO ***
                ***ONTARIO***

CITY           SKY/WX    TMP DP  RH WIND       PRES   REMARKS
GERALDTON      LGT SNOW  19  14  79 S16G23    29.51F WCI   5
THUNDER BAY    LGT SNOW  23  21  93 CALM      29.59F VSB 1
SIOUX LOOKOUT  LGT SNOW  18  14  86 NW15G21   29.47R DRFTSNOWWCI   3
TORONTO        LGT SNOW  21  16  79 SE12      30.12F WCI   9
BIG TROUT LK   LGT SNOW  18  14  86 S3        29.33F VSB 3/4
PICKLE LAKE    LGT SNOW  21  16  79 SW10G18   29.35F DRFTSNOWWCI  10
DRYDEN         PTSUNNY   12   5  73 NW12G21   29.53R WCI  -2
KENORA         NOT AVBL
$$
                *** MANITOBA***

CITY           SKY/WX    TMP DP  RH WIND       PRES   REMARKS
BRANDON        MOSUNNY   -2 -11  65 W26       29.92S WCI -28
DAUPHIN        LGT SNOW  -2 -11  65 W23       29.90S WCI -26
ISLAND LAKE    FLURRIES  -2 -11  65 W17G25    29.57R WCI -24
PILOT MOUND      N/A     -2  -8  78 NW26G33     N/A  WCI -28
THE PAS        CLOUDY    -9 -20  59 NW21G31   29.88S WCI -35
THOMPSON       FLURRIES  -9 -18  64 NW15G26   29.70S WCI -31
WINNIPEG       SUNNY      3  -8  60 NW26G33   29.86R WCI -20
LYNN LAKE      FLURRIES -15 -24  64 NW17G23   29.83S WCI -40
CHURCHILL      CLOUDY    -9 -17  70 NE20G26   29.91R WCI -34
GILLAM         SNOW      -4  -9  77 N23G31    29.60R VSB 3/8 WCI -29
$$
                ***SASKATCHEWAN***

CITY           SKY/WX    TMP DP  RH WIND       PRES   REMARKS
ESTEVAN        NOT AVBL
KINDERSLEY     MOSUNNY   -4 -11  71 W13       30.12F WCI -23
LLOYDMINSTER   NOT AVBL
PRINCE ALBERT  MOSUNNY   -4 -13  65 NW16G25   30.01F WCI -25
REGINA         FLURRIES  -4 -11  71 NW24      30.05S WCI -29


USA.gov is the U.S. government's official web portal to all federal, state and local government web resources and services.